Wetbulb
58.68 58.82 58.54 58.34 58.76 59.51 59.89 59.96 60.13 60.13 60.60 60.59 60.74 60.73 61.26 61.50 61.22 60.92 57.49 63.09 64.80 72.07 71.40 61.28 61.23 61.35 61.24 59.88 62.29 62.51 56.00 53.20 55.97 58.08 60.59 66.39 65.10 68.80 69.87 65.32 67.00 67.45 66.14 67.49 70.65
58.23 58.23 58.08 58.24 58.73 59.35 59.67 59.75 59.84 59.88 60.05 60.20 60.21 60.69 61.42 61.46 58.88 57.37 65.63 72.32 70.96 71.11 60.83 59.74 59.36 59.67 56.11 58.05 58.57 58.38 51.59 55.20 59.34 57.75 58.17 64.67 65.96 66.82 65.83 65.50 65.58 67.28 67.07 69.80 70.83
58.12 57.97 57.77 57.80 58.64 59.07 59.32 59.47 59.53 59.66 59.72 59.84 60.08 60.78 61.46 60.78 55.77 57.38 73.72 73.09 70.96 70.21 61.23 60.54 59.85 57.44 54.55 56.00 56.88 57.86 53.83 58.26 60.99 60.28 60.62 63.12 64.38 68.16 65.23 63.04 66.02 64.60 67.01 68.42 68.86
58.05 57.95 57.54 57.64 57.74 57.88 58.77 59.12 59.11 59.13 59.15 59.49 60.09 60.89 61.60 57.61 48.40 57.79 73.31 72.30 70.74 63.38 59.96 59.38 57.12 54.29 52.42 53.09 58.40 55.96 59.86 59.69 61.76 62.88 60.76 60.68 65.06 64.72 64.63 63.02 67.63 67.91 69.15 68.76 68.09
57.77 57.60 57.20 57.26 57.27 57.32 57.69 58.40 58.61 58.67 58.88 59.40 60.27 61.47 57.08 52.21 54.78 60.68 73.36 71.53 63.32 58.52 58.09 57.43 55.03 53.38 51.63 54.47 56.81 55.44 56.74 58.24 61.85 61.29 60.58 63.11 63.56 64.61 63.39 66.78 68.78 69.20 69.54 67.79 68.03
57.55 57.38 57.17 57.01 56.95 57.12 57.25 58.33 58.30 58.28 58.46 59.32 60.50 61.63 56.30 48.83 58.57 61.55 63.56 61.70 60.01 57.47 57.37 56.89 56.21 55.89 53.47 54.21 54.91 57.25 56.00 57.56 59.21 59.91 59.93 60.47 61.11 62.31 63.90 67.42 67.90 68.19 67.97 68.01 68.27
57.40 57.37 57.02 56.99 56.96 57.00 57.02 58.00 57.73 57.80 58.39 59.59 60.90 60.84 55.80 53.18 60.07 59.67 59.78 62.59 59.67 58.53 56.45 57.68 57.22 54.42 54.94 53.75 58.39 57.56 53.35 55.69 57.07 57.60 57.97 61.33 57.88 60.42 62.85 66.42 66.28 66.78 67.64 66.51 67.21
57.84 57.05 57.26 57.00 56.71 56.59 57.16 57.49 57.14 57.96 58.89 60.60 62.14 56.90 50.01 59.48 59.62 58.51 58.01 56.46 60.29 58.93 57.28 58.16 57.47 55.63 53.44 54.77 55.44 54.60 53.76 49.77 56.62 57.09 59.50 55.48 48.76 61.04 63.99 63.79 64.16 64.09 64.99 67.53 66.09
56.99 57.03 56.82 56.64 56.23 56.38 56.45 56.72 57.45 59.00 60.47 61.40 54.44 52.34 49.66 62.28 56.15 57.85 57.10 55.46 55.87 56.67 56.12 60.61 56.14 52.52 53.38 49.59 47.65 50.57 47.12 50.88 53.86 57.48 58.35 54.67 52.71 61.03 61.44 62.03 61.16 61.75 64.72 66.34 66.36
56.53 56.57 56.88 55.94 55.75 55.90 55.82 56.40 56.95 57.54 59.26 61.91 60.47 50.18 54.01 55.45 53.36 55.70 55.95 55.32 53.98 55.38 55.11 52.61 49.96 47.18 46.34 45.33 41.75 46.73 47.23 50.32 50.00 54.54 57.23 55.70 55.08 59.57 61.24 60.88 61.20 62.05 65.03 66.37 66.66
56.33 55.75 55.54 55.63 55.32 55.33 52.86 52.55 49.99 50.22 51.34 48.16 49.20 53.25 55.95 57.51 54.74 53.72 55.59 53.11 53.14 51.39 47.68 49.18 45.94 43.84 46.57 48.28 50.75 50.00 47.87 47.93 51.06 55.01 54.82 54.51 54.58 56.53 59.98 60.41 59.20 59.71 63.95 64.59 66.09
56.09 55.41 55.21 55.23 55.35 55.33 50.67 51.37 53.71 52.42 47.82 54.31 55.66 55.34 56.19 53.28 48.93 51.56 53.58 51.80 51.21 47.86 48.54 46.32 43.81 49.36 50.34 50.61 49.73 48.72 46.65 46.17 51.46 57.25 54.83 53.83 52.89 56.79 58.46 58.90 59.11 61.07 63.41 63.63 64.27
55.93 55.37 55.01 54.87 53.88 50.71 49.45 52.25 56.31 54.43 47.23 53.41 54.58 53.00 53.84 53.37 51.18 51.43 53.59 52.28 49.95 47.28 47.89 45.28 49.08 52.15 50.46 49.82 48.33 44.45 45.83 46.08 48.35 52.79 53.30 53.90 49.44 52.68 59.26 58.77 59.23 61.61 65.00 63.34 62.60
55.40 54.91 54.43 54.58 49.32 51.13 50.96 52.84 53.37 54.33 43.40 48.89 49.83 53.53 53.46 52.85 49.88 55.21 55.39 53.19 50.15 48.92 48.62 47.09 51.14 50.77 48.85 48.56 47.68 43.14 49.87 50.40 51.17 47.37 42.65 51.71 41.10 48.91 54.40 54.92 57.47 58.41 62.06 62.60 62.87
54.85 54.05 54.13 54.19 50.42 52.66 56.04 56.70 52.36 52.16 38.36 52.64 49.77 55.15 52.61 50.37 49.98 51.87 55.54 52.18 49.13 49.85 47.61 47.75 49.48 49.32 47.29 48.67 49.84 47.11 50.58 50.12 51.48 45.67 44.07 48.15 44.56 47.67 53.03 53.15 56.03 58.11 61.13 63.21 63.38
54.46 52.96 53.82 51.83 49.03 52.29 55.60 55.73 53.01 44.13 40.35 48.20 50.88 49.03 48.39 47.57 50.28 52.69 52.78 52.13 52.98 49.42 48.17 48.93 53.16 50.78 50.04 51.48 50.58 51.61 49.06 47.51 45.65 44.05 39.81 43.43 46.11 44.33 48.52 53.48 56.83 60.60 61.25 61.59 64.06
53.64 51.93 52.92 55.19 52.89 57.22 57.22 52.65 43.44 39.18 51.07 48.09 47.03 48.83 47.82 47.46 49.77 51.14 49.17 46.61 44.96 44.45 42.10 48.55 50.79 52.60 52.10 47.35 49.46 48.77 42.41 37.86 38.36 38.40 37.69 43.04 45.35 45.50 55.07 57.20 57.72 59.12 60.30 61.84 63.02
52.58 51.24 50.75 53.60 54.07 54.61 54.25 47.89 39.29 48.85 48.49 49.41 49.74 48.86 47.23 48.39 48.08 49.18 46.94 44.82 46.91 45.01 42.41 42.18 44.95 50.66 52.31 49.45 46.74 45.09 43.93 38.81 34.50 36.06 39.93 47.71 44.83 48.17 57.24 59.12 60.94 61.69 62.27 63.63 63.33
51.38 47.73 48.87 54.22 54.65 53.66 50.61 41.89 44.51 49.01 54.55 49.43 47.61 46.11 44.73 49.36 49.29 47.33 45.67 44.82 47.51 47.18 43.86 44.10 46.53 54.13 52.34 51.72 50.46 45.57 42.36 45.60 41.06 40.25 41.72 44.28 48.95 55.59 56.87 57.31 58.45 60.30 59.78 60.21 62.58
51.74 52.16 54.24 57.17 57.86 53.96 47.90 43.30 48.65 55.12 56.53 54.91 45.30 47.29 44.02 46.47 48.08 46.25 46.17 49.79 49.82 51.26 49.35 47.69 43.97 49.44 53.87 51.92 51.47 51.20 49.57 44.43 41.30 36.67 36.03 43.92 46.32 46.97 52.63 52.27 56.48 56.76 58.63 58.95 61.00
53.02 53.17 58.98 58.38 57.17 50.93 44.64 47.29 53.67 58.33 58.04 53.21 49.62 48.00 48.38 49.30 48.16 46.39 47.60 52.75 53.49 53.14 52.59 49.17 46.73 49.02 51.48 48.57 48.16 48.32 47.71 46.40 44.35 41.43 38.11 38.88 45.08 54.20 53.91 54.04 54.81 56.64 58.93 59.70 61.41
52.34 51.30 58.96 58.18 48.96 47.10 46.28 51.58 54.38 55.89 57.34 54.31 55.05 53.47 51.59 52.35 50.40 49.27 50.96 52.41 56.45 54.63 51.34 51.33 45.92 43.16 45.81 51.16 53.12 50.20 47.88 45.79 42.97 41.74 41.06 42.12 44.64 56.47 56.10 56.99 57.03 57.25 59.23 61.57 62.07
50.21 54.12 58.03 56.34 44.68 45.20 49.11 52.51 55.39 54.79 54.40 54.51 54.30 55.39 53.32 50.11 49.11 52.00 54.15 56.18 57.56 54.55 50.10 52.01 44.48 39.36 41.96 45.33 50.12 48.32 47.82 48.37 45.41 42.32 41.56 40.23 44.06 55.09 55.63 55.90 56.99 57.88 58.34 60.46 64.00
52.17 51.71 53.86 51.95 49.39 47.80 47.16 50.15 53.10 58.37 55.93 55.73 54.93 55.48 54.38 52.05 51.95 51.54 53.35 56.33 57.06 54.47 60.72 53.65 42.32 40.83 38.75 42.45 45.58 46.92 49.53 49.30 44.75 39.83 40.61 41.76 46.03 52.10 54.30 55.13 56.28 56.73 58.95 63.05 65.99
53.51 52.70 53.22 49.01 50.91 48.87 48.25 50.70 53.83 53.06 56.09 55.19 54.10 54.60 52.53 49.00 50.41 51.17 52.53 52.85 55.04 58.74 53.14 49.33 43.60 46.15 45.53 48.70 50.57 49.45 49.46 49.80 46.45 45.24 41.77 44.05 48.59 50.19 52.74 54.66 54.31 58.42 61.43 64.42 64.03
49.07 50.65 50.88 50.10 52.20 51.44 45.95 51.32 54.02 54.58 54.22 52.45 53.51 55.29 53.18 49.57 49.49 48.04 49.07 47.58 47.66 49.51 47.70 47.87 43.90 44.63 44.51 50.11 50.43 49.21 50.26 49.90 50.48 52.81 50.38 50.46 49.76 54.80 57.50 59.59 60.91 61.29 63.89 62.91 63.49
53.51 53.95 51.62 50.15 52.19 50.65 50.73 52.92 55.93 56.82 56.50 56.29 54.60 53.06 52.26 52.92 53.31 51.86 51.69 51.89 48.67 48.46 46.50 45.73 44.27 42.41 40.62 47.38 47.94 43.68 48.67 51.69 54.45 55.72 54.08 49.90 51.40 57.59 58.93 59.30 59.74 61.38 62.70 62.66 62.52
MSLP
1018.08 1017.77 1017.55 1017.34 1017.02 1016.72 1016.45 1016.12 1015.81 1015.53 1015.22 1014.86 1014.50 1014.12 1013.65 1013.11 1011.97 1011.43 1010.34 1008.16 1007.88 1007.44 1007.27 1006.86 1006.50 1006.54 1006.34 1006.05 1006.03 1006.32 1007.32 1007.67 1007.47 1007.27 1006.87 1006.42 1007.17 1008.50 1008.29 1009.22 1009.53 1009.62 1010.13 1010.52 1011.24
1018.00 1017.76 1017.49 1017.22 1016.89 1016.60 1016.32 1016.02 1015.71 1015.41 1015.13 1014.81 1014.45 1014.06 1013.56 1013.17 1012.40 1010.46 1007.63 1007.30 1007.41 1007.30 1007.31 1007.22 1007.06 1006.97 1006.92 1006.31 1005.76 1005.91 1007.01 1006.74 1006.34 1006.15 1005.98 1005.91 1006.51 1007.69 1008.90 1009.70 1009.93 1009.52 1009.81 1010.51 1011.25
1017.94 1017.67 1017.42 1017.14 1016.81 1016.51 1016.21 1015.91 1015.62 1015.33 1015.06 1014.76 1014.43 1013.97 1013.51 1013.21 1012.07 1008.55 1006.79 1006.95 1007.00 1007.27 1007.50 1007.38 1007.30 1007.29 1006.92 1006.26 1005.44 1005.56 1005.97 1005.77 1005.72 1005.60 1005.44 1005.86 1006.26 1006.79 1008.42 1009.47 1009.34 1009.54 1009.63 1010.15 1010.94
1017.80 1017.53 1017.27 1017.00 1016.72 1016.44 1016.11 1015.83 1015.54 1015.29 1015.03 1014.71 1014.33 1013.84 1013.26 1013.02 1010.83 1007.44 1007.02 1007.11 1006.75 1007.21 1007.34 1007.27 1007.24 1007.52 1007.35 1006.46 1005.02 1005.04 1005.02 1005.01 1005.19 1005.04 1005.18 1005.36 1006.35 1007.23 1007.49 1007.91 1008.07 1008.90 1009.52 1009.62 1010.40
1017.68 1017.34 1017.07 1016.81 1016.56 1016.28 1016.01 1015.72 1015.46 1015.21 1014.99 1014.65 1014.28 1013.79 1012.99 1012.13 1009.30 1006.74 1006.93 1007.02 1006.76 1007.07 1007.31 1007.40 1007.32 1007.40 1007.32 1006.55 1005.39 1004.89 1004.77 1004.49 1004.64 1004.68 1004.73 1005.18 1006.14 1006.97 1007.69 1007.36 1008.12 1007.80 1009.03 1009.63 1009.81
1017.56 1017.17 1016.84 1016.61 1016.34 1016.06 1015.80 1015.52 1015.29 1015.09 1014.87 1014.57 1014.24 1013.89 1013.20 1010.98 1006.90 1006.38 1006.81 1007.17 1006.83 1006.93 1006.89 1007.20 1007.10 1007.03 1006.91 1005.95 1005.36 1004.85 1004.56 1004.41 1004.47 1004.69 1004.55 1005.35 1006.45 1006.70 1008.23 1008.04 1008.27 1008.36 1008.79 1008.99 1009.57
1017.36 1016.91 1016.59 1016.32 1016.10 1015.84 1015.56 1015.27 1015.07 1014.86 1014.64 1014.40 1014.16 1013.77 1012.70 1008.86 1006.74 1006.95 1007.22 1006.65 1006.49 1006.63 1007.05 1006.56 1006.58 1007.02 1006.12 1006.03 1005.47 1005.22 1004.96 1004.65 1004.26 1004.29 1004.52 1004.88 1006.13 1007.13 1008.15 1008.75 1008.86 1008.64 1009.13 1009.87 1010.13
1017.15 1016.66 1016.29 1016.02 1015.80 1015.55 1015.25 1014.95 1014.72 1014.52 1014.33 1014.10 1013.86 1013.57 1011.36 1007.27 1007.07 1007.26 1006.94 1006.77 1006.45 1006.49 1006.66 1006.11 1006.24 1006.33 1006.25 1006.20 1005.94 1005.90 1005.53 1005.34 1004.16 1004.21 1004.25 1005.02 1006.49 1007.71 1007.82 1008.18 1008.45 1008.40 1008.58 1009.58 1010.75
1016.89 1016.42 1016.01 1015.74 1015.51 1015.25 1014.90 1014.58 1014.28 1014.03 1013.94 1013.90 1013.82 1013.06 1010.22 1006.99 1006.74 1006.05 1006.30 1006.44 1006.29 1006.16 1006.20 1005.99 1006.07 1006.60 1006.68 1007.39 1007.61 1006.99 1006.19 1005.65 1004.52 1004.12 1004.53 1005.59 1006.83 1007.28 1007.94 1008.22 1008.40 1008.59 1008.94 1010.48 1012.17
1016.58 1016.17 1015.83 1015.49 1015.26 1015.00 1014.51 1014.10 1013.78 1013.68 1013.49 1013.40 1012.80 1012.57 1009.27 1006.94 1005.98 1005.83 1005.66 1006.12 1006.56 1006.50 1006.65 1006.51 1007.13 1007.65 1008.00 1008.50 1008.66 1007.61 1006.67 1005.59 1004.86 1004.66 1005.28 1006.27 1007.00 1007.14 1007.18 1007.60 1007.81 1008.51 1009.27 1009.92 1011.33
1016.23 1015.87 1015.52 1015.23 1015.06 1014.86 1014.29 1013.62 1013.94 1013.67 1012.84 1011.05 1010.16 1009.44 1007.65 1006.22 1005.62 1005.77 1005.65 1006.13 1006.59 1007.00 1007.34 1007.34 1008.21 1008.30 1007.67 1007.90 1007.63 1007.38 1006.77 1005.70 1004.69 1004.54 1005.59 1006.69 1006.86 1007.16 1007.24 1007.54 1008.28 1009.06 1009.64 1009.88 1009.93
1015.90 1015.54 1015.24 1014.95 1014.87 1014.77 1014.75 1013.67 1011.48 1010.89 1010.65 1009.07 1008.80 1008.23 1006.82 1006.32 1006.06 1005.60 1005.63 1006.62 1006.67 1007.09 1007.56 1008.23 1008.08 1007.22 1006.95 1007.07 1007.25 1006.70 1005.84 1005.51 1005.09 1004.76 1005.36 1006.77 1007.13 1007.65 1008.17 1008.46 1009.26 1009.14 1009.84 1009.91 1009.96
1015.62 1015.19 1014.89 1014.73 1014.72 1014.78 1013.96 1011.60 1009.81 1009.87 1010.02 1007.96 1007.28 1006.87 1006.03 1005.62 1005.62 1005.32 1005.64 1006.15 1006.63 1007.26 1007.55 1007.85 1006.59 1006.27 1006.67 1006.13 1006.33 1005.86 1005.67 1005.49 1005.62 1005.29 1006.01 1007.10 1007.81 1007.92 1008.20 1008.44 1008.55 1008.36 1008.77 1009.07 1009.43
1015.33 1014.93 1014.65 1014.54 1015.03 1013.78 1012.54 1009.30 1009.67 1010.23 1010.05 1007.41 1006.42 1005.08 1005.05 1004.94 1004.96 1004.65 1005.09 1005.88 1006.60 1006.77 1007.04 1007.15 1005.68 1005.82 1005.51 1005.35 1005.08 1005.40 1004.97 1005.41 1005.62 1005.99 1006.95 1007.51 1008.66 1008.42 1008.67 1008.19 1008.50 1008.76 1009.19 1009.12 1008.67
1015.00 1014.71 1014.47 1014.62 1014.52 1013.08 1009.84 1009.44 1009.64 1009.89 1009.25 1006.26 1005.42 1003.72 1004.17 1004.79 1004.57 1004.35 1004.50 1005.52 1006.09 1006.51 1007.11 1006.34 1005.83 1005.16 1004.71 1004.41 1004.46 1004.87 1004.67 1005.34 1005.67 1006.59 1007.52 1008.09 1009.28 1008.84 1009.13 1008.92 1009.07 1009.09 1009.53 1009.26 1009.26
1014.65 1014.43 1014.28 1014.43 1014.27 1011.03 1009.86 1009.35 1009.67 1010.08 1007.66 1005.60 1004.24 1004.13 1004.82 1004.85 1004.61 1004.49 1004.84 1005.22 1005.50 1006.32 1006.46 1006.16 1005.06 1004.57 1003.88 1003.66 1003.85 1004.20 1005.03 1005.79 1006.87 1007.87 1009.01 1008.63 1009.63 1010.63 1010.93 1011.00 1009.45 1009.99 1009.45 1009.06 1007.66
1014.28 1014.10 1014.06 1013.06 1011.56 1010.03 1009.35 1009.56 1010.28 1009.50 1006.42 1005.12 1004.47 1004.38 1004.79 1005.02 1004.97 1005.16 1005.27 1005.70 1006.11 1006.76 1006.87 1005.90 1004.74 1003.63 1003.41 1003.71 1003.88 1004.67 1006.51 1007.74 1008.99 1009.66 1009.81 1009.68 1010.20 1011.94 1011.27 1010.43 1010.35 1010.19 1009.37 1009.12 1009.46
1013.58 1013.60 1013.08 1011.80 1010.54 1010.62 1010.09 1010.51 1009.85 1007.60 1005.91 1004.40 1004.37 1004.68 1005.00 1004.94 1005.15 1005.23 1005.53 1006.01 1005.97 1006.61 1007.29 1006.48 1005.03 1003.71 1003.19 1003.29 1004.08 1004.88 1006.53 1008.18 1009.36 1010.42 1010.37 1010.24 1011.33 1011.76 1011.20 1010.40 1010.12 1009.03 1008.13 1008.09 1009.32
1012.75 1013.10 1012.59 1009.51 1010.40 1011.18 1011.11 1010.68 1008.55 1006.46 1004.69 1003.95 1004.43 1004.83 1004.98 1004.70 1004.99 1005.40 1005.42 1005.62 1005.45 1005.95 1006.72 1006.03 1005.06 1003.49 1002.79 1002.70 1003.66 1004.73 1006.15 1007.03 1008.53 1010.05 1010.90 1011.43 1011.58 1011.60 1011.77 1010.98 1009.42 1008.33 1007.24 1007.48 1008.00
1012.74 1012.26 1010.43 1008.18 1009.43 1010.38 1010.87 1009.97 1007.46 1005.26 1003.95 1003.63 1004.07 1003.76 1004.39 1004.29 1005.01 1005.16 1005.05 1004.44 1004.42 1004.59 1004.96 1005.69 1005.41 1004.35 1003.45 1003.05 1003.84 1004.53 1005.43 1006.93 1008.81 1010.47 1011.67 1011.97 1011.84 1012.28 1012.21 1011.49 1010.14 1009.11 1007.92 1007.54 1007.47
1012.61 1011.44 1007.98 1007.81 1008.81 1010.31 1010.50 1008.74 1006.17 1004.24 1003.73 1002.59 1002.61 1003.13 1003.51 1003.68 1004.19 1004.32 1004.27 1004.07 1003.64 1004.24 1004.72 1005.32 1005.95 1005.79 1004.56 1004.65 1004.74 1005.12 1005.73 1007.09 1008.56 1010.07 1011.17 1012.21 1011.62 1009.76 1010.52 1011.03 1010.67 1009.58 1008.43 1008.51 1008.71
1012.68 1011.08 1007.76 1007.50 1009.40 1009.86 1009.57 1007.72 1005.81 1004.19 1002.62 1001.61 1002.02 1002.28 1002.51 1002.99 1003.67 1004.02 1003.88 1003.55 1003.34 1003.61 1005.01 1005.70 1006.86 1007.25 1006.66 1005.54 1004.97 1005.27 1006.02 1006.98 1008.86 1010.04 1010.31 1010.87 1010.24 1008.97 1010.17 1010.89 1010.53 1009.65 1009.14 1009.26 1009.01
1013.40 1010.99 1008.14 1008.09 1009.26 1009.62 1008.14 1007.01 1005.70 1004.10 1002.76 1001.84 1001.82 1001.94 1002.67 1003.28 1003.86 1003.80 1003.63 1003.52 1003.29 1004.07 1005.18 1005.87 1007.37 1008.22 1007.46 1006.59 1005.30 1005.95 1006.19 1006.77 1007.89 1009.03 1009.94 1010.78 1010.11 1009.80 1010.03 1010.59 1010.02 1010.41 1009.94 1010.01 1009.14
1013.54 1011.67 1009.88 1009.23 1008.92 1008.97 1008.36 1006.77 1005.25 1003.94 1003.17 1002.26 1002.36 1002.49 1003.60 1004.29 1004.21 1004.01 1004.28 1004.07 1003.84 1004.47 1005.12 1006.08 1008.14 1008.78 1008.89 1008.43 1007.70 1007.08 1006.39 1006.31 1007.44 1008.75 1009.43 1009.63 1009.72 1010.18 1010.24 1010.51 1010.28 1010.79 1010.41 1009.68 1009.40
1013.47 1012.69 1011.41 1010.42 1009.54 1008.98 1008.26 1006.96 1006.07 1005.22 1003.99 1002.89 1003.62 1003.69 1004.07 1005.45 1005.45 1005.80 1005.43 1004.98 1005.08 1005.64 1006.00 1006.96 1008.61 1008.77 1008.67 1008.27 1007.62 1007.32 1006.85 1006.48 1006.90 1007.04 1008.36 1008.49 1009.25 1009.87 1010.55 1010.52 1010.78 1010.34 1009.95 1009.76 1009.57
1014.15 1013.78 1012.26 1011.59 1010.26 1008.87 1007.21 1006.45 1005.93 1005.88 1005.65 1005.21 1005.03 1005.15 1005.02 1006.29 1006.50 1006.71 1006.51 1006.29 1006.39 1006.54 1007.03 1007.80 1008.66 1008.90 1009.15 1008.42 1008.03 1007.60 1006.97 1006.37 1006.44 1006.98 1007.57 1008.44 1009.76 1009.96 1010.54 1010.68 1010.35 1010.08 1010.30 1009.84 1009.63
1014.58 1013.56 1013.17 1012.02 1010.38 1009.04 1008.00 1006.61 1006.04 1005.73 1005.83 1005.69 1005.74 1005.81 1006.12 1006.46 1006.32 1006.21 1006.32 1006.47 1006.54 1006.96 1007.63 1008.29 1009.03 1009.75 1009.76 1009.05 1008.57 1007.94 1007.20 1007.00 1006.98 1007.27 1007.66 1008.58 1009.68 1010.12 1010.55 1010.40 1010.38 1010.03 1009.86 1010.02 1010.08
Wind_Speed
13 13 13 13 13 13 13 14 14 14 15 16 16 16 16 17 19 2 5 10 6 7 5 7 5 6 8 5 6 3 5 1 2 3 3 3 10 9 5 13 7 11 6 8 19
13 13 13 13 13 14 14 14 14 15 15 15 16 16 15 16 4 6 13 8 6 7 5 5 9 12 5 6 4 5 5 5 5 5 3 2 8 13 6 8 3 2 5 19 20
14 14 13 14 14 14 14 14 15 15 15 16 15 16 15 12 5 8 1 9 8 3 4 3 4 3 5 3 4 5 6 6 5 6 4 1 1 5 16 1 4 5 17 22 20
14 14 14 14 14 14 15 14 15 15 15 16 15 16 18 2 3 4 4 6 8 2 4 6 6 8 6 5 4 4 5 4 6 7 5 6 6 6 10 12 14 7 11 21 19
15 15 15 14 14 15 15 14 14 15 15 15 14 14 5 2 10 5 7 4 6 2 2 2 5 1 3 6 5 3 2 3 8 9 8 2 7 10 9 15 11 14 8 17 19
16 15 14 14 14 15 15 14 14 14 14 13 13 14 1 3 7 7 8 3 8 1 5 2 6 5 9 5 4 3 3 5 6 8 7 11 6 7 5 7 11 11 10 10 18
17 16 14 14 14 15 15 14 15 14 13 12 10 4 1 15 1 7 3 8 4 5 4 6 5 2 4 9 6 7 3 6 7 7 6 7 2 2 9 6 8 9 6 7 10
15 16 15 14 14 15 14 14 15 15 12 10 4 1 9 7 4 6 7 7 8 7 6 10 7 4 2 4 9 5 3 1 8 8 5 7 7 4 13 12 10 9 12 12 10
17 16 15 15 14 13 13 14 16 15 10 7 1 1 11 11 3 9 6 7 4 5 6 7 2 1 8 4 7 6 6 1 6 10 4 3 6 2 8 7 9 6 7 12 11
19 15 14 14 13 11 14 17 10 11 3 5 5 4 6 5 4 4 6 3 4 5 7 3 6 4 5 6 4 5 3 4 3 1 8 4 3 2 6 6 5 4 19 23 23
19 17 15 13 11 10 9 2 3 2 2 10 8 5 5 5 2 6 8 1 1 2 5 3 4 8 13 8 6 6 8 3 7 7 6 4 5 8 5 2 6 3 14 18 17
19 17 14 11 8 7 2 2 6 5 7 16 11 8 8 0 1 6 7 5 5 5 1 5 7 15 9 8 7 10 2 6 6 3 5 4 4 1 5 1 3 4 8 13 15
17 15 11 9 4 2 4 10 5 9 1 7 8 7 8 8 8 9 12 6 3 2 5 7 16 4 7 16 2 3 2 5 6 5 4 5 7 4 1 4 4 6 11 9 12
18 13 9 4 2 3 6 7 4 4 5 7 3 8 4 4 3 9 9 7 3 11 6 8 13 8 8 7 4 3 7 6 6 5 3 3 7 4 6 6 5 6 7 10 14
18 13 7 4 4 3 6 8 8 5 3 2 4 4 7 9 2 3 8 4 6 8 5 13 7 10 4 5 5 9 7 6 3 3 2 2 4 7 5 9 11 7 9 4 11
19 12 4 3 2 10 11 7 4 7 5 3 6 6 5 3 3 2 6 0 3 3 3 11 5 5 8 3 4 3 4 8 7 3 3 3 6 6 6 6 10 14 17 23 25
16 9 7 3 6 6 7 5 6 3 7 4 5 6 6 5 2 9 8 5 4 2 4 8 7 7 4 1 6 8 7 5 7 5 7 5 5 3 4 10 5 7 12 17 18
14 3 8 7 2 9 5 7 3 6 6 2 5 6 7 6 6 8 6 5 7 4 3 4 9 2 2 9 8 5 9 7 4 3 3 6 2 2 4 6 10 5 12 10 7
4 2 4 7 7 3 6 3 8 7 4 6 3 6 5 5 4 4 8 8 9 10 7 1 5 6 4 5 10 3 0 7 4 2 5 3 3 7 7 9 10 10 10 12 14
1 1 5 3 10 5 6 6 6 5 7 1 10 8 9 7 7 7 8 6 7 10 7 5 3 3 8 5 4 3 3 6 5 1 1 3 5 4 2 3 2 8 7 12 12
2 3 5 9 5 6 4 8 7 9 5 6 7 5 3 2 10 7 5 6 5 5 10 5 5 9 7 3 4 5 5 4 5 6 6 3 8 9 14 12 11 10 9 5 11
3 2 1 6 4 1 3 5 5 14 24 6 6 5 6 5 2 3 2 5 3 4 4 3 6 2 3 8 4 3 1 5 6 8 2 5 8 6 8 13 9 10 7 4 13
2 3 3 6 2 3 7 8 9 11 8 4 5 5 4 2 5 3 3 1 7 5 4 2 3 4 11 11 10 6 5 4 4 4 4 6 7 3 7 5 9 5 8 6 8
2 4 4 4 2 1 6 8 5 7 7 4 3 7 5 8 10 6 3 3 5 5 6 9 3 7 7 8 5 8 10 8 5 4 3 6 4 5 5 6 6 6 5 6 6
2 2 1 4 5 6 5 6 6 8 8 7 9 9 7 7 7 8 7 6 8 6 4 6 2 2 1 2 4 3 8 11 7 8 6 6 5 2 5 5 2 5 5 5 9
3 3 5 4 5 6 6 5 5 2 4 9 9 12 12 7 4 2 1 4 2 4 5 5 2 3 6 6 6 5 9 11 4 5 5 9 6 5 6 6 5 8 1 7 10
4 4 4 5 8 7 7 3 8 6 4 6 4 7 10 3 1 3 4 4 4 2 2 2 3 3 4 4 6 6 5 7 6 8 4 3 7 5 4 7 5 7 5 6 7
Wind_Direction
338 334 334 333 329 328 328 328 329 329 329 330 332 332 327 326 314 160 251 224 195 291 298 295 324 330 315 267 191 97 60 98 95 101 239 318 119 274 116 135 196 182 146 163 151
336 332 329 326 324 324 325 326 326 327 327 329 331 329 325 332 316 261 238 229 242 285 305 338 322 341 314 281 317 98 116 194 187 183 186 251 118 128 114 131 283 15 145 143 140
335 330 325 321 321 321 323 323 323 325 326 327 329 326 320 326 326 251 306 186 222 254 269 321 291 310 290 304 242 158 171 194 205 168 166 46 200 121 135 162 166 192 141 152 158
335 328 323 320 317 317 318 319 320 322 325 325 327 326 317 249 266 286 187 222 240 292 323 346 351 348 324 296 240 123 217 188 180 196 160 163 78 83 133 193 156 144 171 165 169
333 327 322 317 314 313 312 315 315 318 321 323 326 328 343 4 253 233 178 208 273 296 195 279 298 31 235 297 312 115 247 273 172 208 179 171 146 146 160 164 147 143 193 174 174
334 328 321 316 311 309 307 308 310 313 316 319 323 322 337 271 248 196 170 168 260 137 268 107 253 259 271 291 40 297 270 278 127 236 184 138 161 104 216 161 155 151 198 189 190
334 328 321 316 310 305 303 303 306 308 311 312 312 309 310 234 229 52 246 199 226 195 254 258 259 296 314 333 342 303 301 315 271 218 166 141 223 115 108 176 165 164 230 245 209
328 329 322 316 310 304 299 299 300 300 300 301 312 260 248 257 247 272 204 282 269 253 207 261 286 277 41 311 350 347 5 33 304 165 216 95 277 148 165 163 179 211 201 213 256
331 327 322 318 311 304 297 294 294 292 280 263 299 166 267 305 179 236 192 234 300 278 253 262 314 308 0 47 355 350 263 97 314 203 135 93 245 240 146 191 198 190 156 67 15
332 325 319 318 313 307 300 287 282 309 202 210 259 344 280 241 217 188 229 180 253 272 342 356 36 23 356 71 253 312 321 322 265 78 53 88 196 252 220 224 246 111 120 123 194
331 326 321 316 313 316 337 42 30 1 257 195 192 240 263 235 112 201 224 226 249 121 205 285 91 248 245 205 235 258 274 313 291 290 100 169 193 228 215 259 360 98 139 158 187
330 326 320 313 312 310 321 194 203 175 292 222 231 259 279 123 174 236 105 154 155 220 85 1 240 241 251 252 255 251 286 295 307 341 103 211 244 131 174 185 88 247 155 172 186
328 324 318 309 337 327 219 229 117 40 30 283 190 197 234 131 204 212 146 194 198 281 243 189 243 228 225 273 223 305 258 281 229 307 63 104 322 355 174 149 143 172 174 200 200
336 330 317 317 323 249 245 258 260 102 54 270 209 257 206 178 275 200 185 143 205 224 239 223 259 229 247 223 118 299 245 261 272 50 284 144 272 316 329 335 51 67 154 189 208
338 333 298 220 310 218 236 21 134 59 13 175 195 200 164 162 199 236 172 77 221 249 72 269 296 299 298 215 156 231 269 232 264 0 34 302 64 256 2 6 354 36 36 284 233
337 329 229 195 228 248 304 306 66 45 263 226 165 166 108 245 280 43 152 69 188 242 262 246 246 221 211 241 217 275 343 8 33 85 346 230 133 337 22 319 300 39 8 5 346
332 324 190 273 220 334 298 49 56 144 314 211 169 139 166 209 269 173 172 206 169 76 298 334 282 275 165 288 343 68 59 343 347 360 218 292 61 43 324 338 353 3 9 15 12
312 266 230 243 306 359 24 52 161 231 239 170 140 144 184 166 238 195 142 204 265 128 46 222 324 186 194 174 189 221 145 159 236 224 244 22 327 211 258 338 32 40 37 355 71
337 188 247 246 191 159 72 91 210 213 245 151 68 141 254 230 149 146 200 205 215 167 191 176 275 308 185 150 131 262 51 192 132 344 74 309 325 60 10 20 28 52 43 288 311
350 214 249 168 145 77 78 240 243 231 309 126 211 173 203 228 149 182 179 231 242 179 164 264 344 21 303 63 19 77 227 21 13 0 48 299 296 174 207 204 162 107 165 264 280
2 16 259 119 98 60 175 238 282 277 302 212 189 161 201 168 187 198 200 294 127 53 129 168 86 304 33 23 187 351 25 54 126 140 160 151 264 213 174 186 169 195 215 264 291
348 21 268 104 82 212 195 219 288 298 307 255 148 132 182 86 88 73 168 141 194 90 63 352 125 110 245 284 90 142 215 78 100 287 140 149 265 209 152 176 194 226 240 342 299
356 261 320 87 126 277 275 277 273 285 280 0 67 72 92 137 87 109 109 100 74 89 124 359 32 25 349 349 357 38 314 186 160 95 246 138 259 131 116 170 242 350 332 307 281
57 18 329 25 170 238 323 283 325 323 289 37 77 94 71 41 26 65 358 40 66 79 123 83 94 144 174 220 228 329 329 330 122 125 235 225 223 205 181 231 323 347 286 310 35
56 314 175 282 296 249 198 285 7 356 340 15 31 29 113 49 41 31 348 38 21 26 5 101 124 108 165 233 15 314 321 317 321 244 159 247 176 75 153 209 248 231 279 96 74
59 33 344 301 274 259 137 215 172 66 342 342 85 58 66 94 123 111 131 30 116 347 32 354 248 124 351 340 2 331 308 296 286 75 55 101 53 138 132 136 102 64 164 73 82
319 320 114 282 318 18 322 100 32 87 307 68 113 80 56 49 211 248 186 193 213 191 270 88 110 64 277 327 14 351 284 41 37 16 160 119 163 170 130 131 109 68 53 86 83